Satellite: CO-55
Catalog number: 27844
Epoch time:      09302.58372366
Element set:     699
Inclination:      098.7133 deg
RA of node:       309.8623 deg
Eccentricity:    0.0010507
Arg of perigee:   113.3393 deg
Mean anomaly:     246.8885 deg
Mean motion:   14.20663032 rev/day
Decay rate:        3.7e-07 rev/day^2
Epoch rev:           32834
Checksum:              320

Satellite: CO-57
Catalog number: 27848
Epoch time:      09302.50968831
Element set:     651
Inclination:      098.7175 deg
RA of node:       308.8555 deg
Eccentricity:    0.0010597
Arg of perigee:   118.7345 deg
Mean anomaly:     241.4903 deg
Mean motion:   14.20461822 rev/day
Decay rate:        2.2e-07 rev/day^2
Epoch rev:           32829
Checksum:              321

Satellite: AO-51
Catalog number: 28375
Epoch time:      09301.52415660
Element set:    0520
Inclination:      098.0541 deg
RA of node:       303.3770 deg
Eccentricity:    0.0084960
Arg of perigee:   080.0954 deg
Mean anomaly:     280.9814 deg
Mean motion:   14.40656400 rev/day
Decay rate:        1.3e-07 rev/day^2
Epoch rev:           28015
Checksum:              276

Satellite: CO-56
Catalog number: 28941
Epoch time:      09297.68475575
Element set:     556
Inclination:      098.0955 deg
RA of node:       138.9518 deg
Eccentricity:    0.0011688
Arg of perigee:   319.8691 deg
Mean anomaly:     040.7485 deg
Mean motion:   16.46998778 rev/day
Decay rate:  1.4491492e-01 rev/day^2
Epoch rev:           20790
Checksum:              407

Satellite: GENESAT1
Catalog number: 29655
Epoch time:      09301.75515220
Element set:     845
Inclination:      040.0221 deg
RA of node:       064.6511 deg
Eccentricity:    0.0003119
Arg of perigee:   048.1585 deg
Mean anomaly:     311.9497 deg
Mean motion:   15.68907686 rev/day
Decay rate:     2.6042e-04 rev/day^2
Epoch rev:           16343
Checksum:              290

Satellite: CP3
Catalog number: 31129
Epoch time:      09302.60368458
Element set:     292
Inclination:      097.9712 deg
RA of node:       349.1318 deg
Eccentricity:    0.0101482
Arg of perigee:   228.6334 deg
Mean anomaly:     130.6116 deg
Mean motion:   14.52173446 rev/day
Decay rate:       1.14e-06 rev/day^2
Epoch rev:           13439
Checksum:              284

Satellite: CO-65
Catalog number: 32785
Epoch time:      09302.73183013
Element set:     510
Inclination:      097.9303 deg
RA of node:       005.4744 deg
Eccentricity:    0.0014410
Arg of perigee:   317.8772 deg
Mean anomaly:     042.1329 deg
Mean motion:   14.81533120 rev/day
Decay rate:        6.2e-07 rev/day^2
Epoch rev:            8136
Checksum:              268

Satellite: KKS-1
Catalog number: 33493
Epoch time:      09302.77776196
Element set:     892
Inclination:      098.0676 deg
RA of node:       055.6632 deg
Eccentricity:    0.0020386
Arg of perigee:   163.3205 deg
Mean anomaly:     196.8683 deg
Mean motion:   14.80760329 rev/day
Decay rate:       5.10e-06 rev/day^2
Epoch rev:            4138
Checksum:              321

Satellite: SOHLA-1
Catalog number: 33496
Epoch time:      09302.80396652
Element set:     857
Inclination:      098.0473 deg
RA of node:       050.0803 deg
Eccentricity:    0.0005797
Arg of perigee:   207.1257 deg
Mean anomaly:     152.9644 deg
Mean motion:   14.69452192 rev/day
Decay rate:        4.5e-07 rev/day^2
Epoch rev:            4104
Checksum:              301

/EX
SB KEPS @ AMSAT  $ORB09302.W
Orbital Elements  09302.WEATHER

HR AMSAT ORBITAL ELEMENTS FOR WEATHER SATELLITES
FROM WA5QGD FORT WORTH,TX October 29, 2009
Send Subscribe/unsubscribe to KEPS at 
http://www.amsat.org/mailman/listinfo/keps
BID: ORB09302.W
TO ALL RADIO AMATEURS BT

Satellite: NOAA-10
Catalog number: 16969
Epoch time:      09302.53426137
Element set:     813
Inclination:      098.6822 deg
RA of node:       328.3899 deg
Eccentricity:    0.0012414
Arg of perigee:   161.7115 deg
Mean anomaly:     198.4531 deg
Mean motion:   14.27397583 rev/day
Decay rate:        2.9e-07 rev/day^2
Epoch rev:           20267
Checksum:              319

Satellite: NOAA-11
Catalog number: 19531
Epoch time:      09302.28469240
Element set:     830
Inclination:      098.7805 deg
RA of node:       030.1428 deg
Eccentricity:    0.0012299
Arg of perigee:   085.8667 deg
Mean anomaly:     274.3889 deg
Mean motion:   14.14906436 rev/day
Decay rate:        9.6e-07 rev/day^2
Epoch rev:            8848
Checksum:              332

Satellite: NOAA-12
Catalog number: 21263
Epoch time:      09302.79441464
Element set:     316
Inclination:      098.7732 deg
RA of node:       310.9310 deg
Eccentricity:    0.0013199
Arg of perigee:   113.2196 deg
Mean anomaly:     247.0374 deg
Mean motion:   14.25598401 rev/day
Decay rate:        1.0e-07 rev/day^2
Epoch rev:           95957
Checksum:              292

Satellite: MET-3/5
Catalog number: 21655
Epoch time:      09301.93073638
Element set:    0727
Inclination:      082.5499 deg
RA of node:       112.0290 deg
Eccentricity:    0.0012838
Arg of perigee:   203.5893 deg
Mean anomaly:     156.4641 deg
Mean motion:   13.17020991 rev/day
Decay rate:        5.1e-07 rev/day^2
Epoch rev:           87523
Checksum:              301

